Location: Beau Repaire
(50.6144°N, 4.0551°E)
Time: 04:37:48
(UTC+00:00)

Cosmos 2360 Rocket - Pass Details

Date: 15 May 2026
Orbit: 831 x 845 km, 71.0° (Epoch: 6 June)

Event Time Altitude Azimuth Distance (km) Brightness Sun altitude
Rises 20:00:15 0° 332° (NNW) 3,417 6.8 -5.3°
Reaches altitude 10° 20:02:54 10° 341° (NNW) 2,478 5.7 -5.6°
Maximum altitude 20:08:10 37° 48° (NE) 1,286 3.1 -6.3°
Drops below altitude 10° 20:13:24 10° 116° (ESE) 2,464 4.0 -6.9°
Enters shadow 20:13:59 - 118° (ESE) 2,669 4.2 -7.0°
